Location: Arpaise
(41.0333°N, 14.7333°E)
Time: 17:04:22
(UTC+00:00)

Cosmos 1408 - Pass Details

Date: 05 July 2020
Orbit: 471 x 493 km, 82.6° (Epoch: 10 August)

Event Time Altitude Azimuth Distance (km) Brightness Sun altitude
Exits shadow 21:28:58 36° 53° (NE) 769 3.6 -22.4°
Drops below altitude 10° 21:31:30 10° 21° (NNE) 1,642 5.8 -22.6°
Sets 21:33:39 0° 15° (NNE) 2,524 7.0 -22.8°
